This is the latest recevied weather packets stored in our database for station/object W5MAI. If no packets are shown the sender has not sent any weather packets the latest 10 day(s).
| Time | Temp. | Humidity | Pressure | Rain* | Wind** | Luminosity | Snow |
|---|---|---|---|---|---|---|---|
| 1787954621 | 35.56° C | 50% | 1016.1 hPa | 0 mm | - | 563 W/m² | - |
| 1787954057 | 35.56° C | 48% | 1016.2 hPa | 0 mm | - | 606 W/m² | - |
| 1787953411 | 36.67° C | 47% | 1016.1 hPa | 0 mm | - | 628 W/m² | - |
| 1787952847 | 36.67° C | 45% | 1016.5 hPa | 0 mm | - | 673 W/m² | - |
| 1787952211 | 36.11° C | 46% | 1016.6 hPa | 0 mm | - | 701 W/m² | - |
| 1787951623 | 36.11° C | 46% | 1016.8 hPa | 0 mm | - | 719 W/m² | - |
| 1787951029 | 35.56° C | 49% | 1017 hPa | 0 mm | - | 759 W/m² | - |
| 1787950447 | 35.56° C | 48% | 1017 hPa | 0 mm | - | 773 W/m² | - |
| 1787949861 | 35.56° C | 49% | 1017.1 hPa | 0 mm | - | 791 W/m² | - |
| 1787949224 | 35.56° C | 49% | 1017.5 hPa | 0 mm | - | 805 W/m² | - |
| 1787948647 | 35° C | 48% | 1017.8 hPa | 0 mm | - | 821 W/m² | - |
| 1787948021 | 35.56° C | 48% | 1018.2 hPa | 0 mm | - | 830 W/m² | - |
| 1787947448 | 35.56° C | 48% | 1018.2 hPa | 0 mm | - | 840 W/m² | - |
| 1787946808 | 35° C | 50% | 1018.5 hPa | 0 mm | - | 854 W/m² | - |
| 1787946237 | 34.44° C | 49% | 1018.4 hPa | 0 mm | - | 865 W/m² | - |
| 1787945657 | 35° C | 52% | 1018.6 hPa | 0 mm | - | 944 W/m² | - |
| 1787945024 | 34.44° C | 53% | 1018.8 hPa | 0 mm | - | 958 W/m² | - |
| 1787944445 | 33.89° C | 53% | 1018.9 hPa | 0 mm | - | 997 W/m² | - |
| 1787943813 | 33.89° C | 55% | 1019.1 hPa | 0 mm | - | 594 W/m² | - |
| 1787940828 | 32.22° C | 57% | 1019.8 hPa | 0 mm | - | 1044 W/m² | - |
| 1787940255 | 32.22° C | 60% | 1020.1 hPa | 0 mm | - | 879 W/m² | - |
| 1787939622 | 31.67° C | 62% | 1020.3 hPa | 0 mm | - | 844 W/m² | - |
| 1787939051 | 31.67° C | 63% | 1020.4 hPa | 0 mm | - | 868 W/m² | - |
| 1787938406 | 31.11° C | 67% | 1020.6 hPa | 0 mm | - | 865 W/m² | - |
| 1787937840 | 30.56° C | 65% | 1020.7 hPa | 0 mm | - | 721 W/m² | - |
* Rain latest hour (hover to see other rain measurements)
** Current wind speed in m/s (hover to see current wind gust speed)